Location: Ar Ranvel
(48.3000°N, 4.8833°W)
Time: 20:37:19
(UTC+00:00)

N. Korean satellite - Pass Details

Date: 01 October 2021
Orbit: 450 x 495 km, 97.3° (Epoch: 25 October)

Event Time Altitude Azimuth Distance (km) Brightness Sun altitude
Rises 05:23:36 0° 17° (NNE) 2,548 10.6 -10.0°
Reaches altitude 10° 05:25:42 10° 23° (NNE) 1,671 9.7 -9.7°
Maximum altitude 05:29:12 50° 99° (E) 631 7.6 -9.1°
Drops below altitude 10° 05:32:43 10° 176° (S) 1,678 9.3 -8.5°
Sets 05:34:50 0° 182° (S) 2,559 10.2 -8.2°
